This demonstration page uses our WeatherBlox Daily Observations layout. Learn more.

Left ArrowRight Arrow

41.86663, -103.66717

Hourly Observations for September 1, 2020

Temp ( °F °C ) Dew Point ( °F °C ) Humidity (%) Winds ( mph kmh ) Pressure ( in mb ) Visibility ( mi km ) Precip ( " mm )
12:53 am 00:53 Mostly Clear 61 16.1 48 8.9 63 63 NW 7 11 29.8 1009 10 16.0934 0 0
1:53 am 01:53 Clear 61 16.1 46 7.8 58 58 N 3 6 29.79 1009 10 16.0934 0 0
2:53 am 02:53 Cloudy 59 15 47 8.3 64 64 Calm 29.8 1009 10 16.0934 0 0
3:53 am 03:53 Mostly Cloudy 58 14.4 48 8.9 70 70 Calm 29.79 1009 10 16.0934 0 0
4:53 am 04:53 Clear 53 11.7 47 8.3 80 80 E 5 7 29.81 1009 10 16.0934 0 0
5:53 am 05:53 Clear 51 10.6 45 7.2 80 80 E 3 6 29.82 1010 10 16.0934 0 0
6:53 am 06:53 Sunny 50 10 45 7.2 83 83 W 5 7 29.85 1011 10 16.0934 0 0
7:53 am 07:53 Sunny 57 13.9 41 5 55 55 W 9 15 29.85 1011 10 16.0934 0 0
8:53 am 08:53 Sunny 63 17.2 38 3.3 40 40 WNW 14 22 29.85 1011 10 16.0934 0 0
9:53 am 09:53 Sunny 67 19.4 40 4.4 37 37 WNW 9 15 29.84 1011 10 16.0934 0 0
10:53 am 10:53 Sunny 71 21.7 38 3.3 30 30 W 14 22 29.82 1010 10 16.0934 0 0
11:53 am 11:53 Sunny 74 23.3 39 3.9 28 28 NW 16 26 29.82 1010 10 16.0934 0 0
12:53 pm 12:53 Sunny 77 25 38 3.3 24 24 W 13 20 29.8 1009 10 16.0934 0 0
1:53 pm 13:53 Sunny 80 26.7 35 1.7 20 20 W 14 22 29.79 1009 10 16.0934 0 0
2:53 pm 14:53 Sunny 80 26.7 35 1.7 20 20 WNW 12 19 29.78 1009 10 16.0934 0 0
3:53 pm 15:53 Sunny 84 28.9 34 1.1 17 17 WNW 12 19 29.77 1008 10 16.0934 0 0
4:53 pm 16:53 Sunny 84 28.9 32 0 15 15 NW 15 24 29.78 1009 10 16.0934 0 0
5:53 pm 17:53 Sunny 82 27.8 33 0.6 17 17 NNW 13 20 29.8 1009 10 16.0934 0 0
6:53 pm 18:53 Sunny 78 25.6 32 0 19 19 NNW 8 13 29.82 1010 10 16.0934 0 0
7:53 pm 19:53 Clear 64 17.8 39 3.9 40 40 NNE 9 15 29.85 1011 10 16.0934 0 0
8:53 pm 20:53 Clear 64 17.8 35 1.7 34 34 NNE 9 15 29.88 1012 10 16.0934 0 0
9:53 pm 21:53 Clear 59 15 34 1.1 39 39 SW 5 7 29.91 1013 10 16.0934 0 0
10:53 pm 22:53 Clear 57 13.9 37 2.8 47 47 W 3 6 29.93 1014 10 16.0934 0 0
11:53 pm 23:53 Clear 56 13.3 39 3.9 53 53 Calm 29.95 1014 10 16.0934 0 0

Powered by AerisWeather